Погода в Торонях

Греция     39°59′02″N   23°54′18″E
темп.,
°C
ветер,
м/с
пор.,
м/с
влажн.,
%
обл.,
%
осадки,
мм/ч
давл.,
гПа
погр.,
м
23 апреля, пт
пт2300:00+14в117989 0.0 102012
03:00+13ссв2279100 0.0 101914
06:00+13с22739 0.0 101825
09:00+15с2269100 0.0 101966
12:00+17ссз1260100 0.1 1020575
15:00+18в1157100 0.1 1020671
18:00+17зсз1260100 0.0 1019359
21:00+15ссв2274100 0.0 102134
24 апреля, сб
сб2400:00+13ссз3486100 0.5 1021170
03:00+13ссв3487100 0.8 1020207
06:00+12ссз2396100 4.8 1020196
09:00+13с2393100 11.1 1021252
12:00+12ссв3388100 0.9 1020440
15:00+12св3388100 3.0 1020368
18:00+10ссв3692100 8.4 1019388
21:00+11ссв2489100 12.4 1020244
25 апреля, вс
вс2500:00+11с61088100 2.1 1018665
03:00+11с5990100 3.5 1018545
06:00+11с5889100 1.1 1017617
09:00+12ссв598099 1.3 1018843
12:00+13ссв697268 0.1 1018874
15:00+14ссв34618 0.1 1017854
18:00+15с23616 0.0 1017756
21:00+12в11725 0.0 1018142
26 апреля, пн
пн2600:00+11в227363 0.0 1018163
03:00+11сз117322 0.0 1018104
06:00+10ссз22796 0.0 101886
09:00+14с12674 0.0 1019382
12:00+16юв116153 0.0 1020822
15:00+17ю22590 0.0 1019894
18:00+16ююв33625 0.0 1018499
21:00+13юв2275100 0.0 101878
27 апреля, вт
вт2700:00+13всв11725 0.0 101864
03:00+12в237486 0.0 1017164
06:00+12в347584 0.0 1015181
09:00+14всв2367100 0.0 1016376
12:00+15вюв2264100 0.0 1015452
15:00+16юв3360100 0.0 1013457
18:00+15вюв4466100 0.0 1012299
21:00+13в3475100 0.0 1010125